Volver al catálogo

BREEZE-M DEB

TANK

ActivoHEO
NORAD 35495·DEBRIS·🇷🇺 Russia

Lanzado Jun 30, 2009 desde Baikonur Cosmodrome

Loading…

Próximos Pases (próximas 24 horas)

TLE

ActualizadoSource: Space-Track

Época: Sep 14, 2026, 12:38 UTC

1 35495U 09034C   26257.52686868  .00002701  00000-0  46125-3 0  9994
2 35495  49.6096 297.4453 4880645 179.8172 180.5706  5.81714482348446

Sigue BREEZE-M DEB en tiempo real con AllMySat

Download on the App Store